Погода в Уфе

Погода в Уфе : погода сейчас, прогноз погоды и архив. Всё, что Вы хотите узнать о погоде в Уфе!

Хотите узнать прогноз погоды в Уфе? Тогда Вам сюда: Погода в Уфе

Поиск расширенной информации на нашем сайте:

Другие новости

Новости СМИ2

Главная страница сайта

Новости сайта

03.07.2017

Напоминаем, что на нашем специализированном сайте Метеоцентр.Азия вы можете получить высокодетализированные автоматические прогнозы погоды по пунктам России, СНГ и мира в авиационном формате (включающие направление и скорость ветра, видимость, явления погоды, количество и форму облачности, нижнюю и верхнюю границу облачности).

Рекомендуем: Организация корпоратива москва агентство open air организация праздников в москве.

Погода в Уфе - сегодня

Время (UTC), дата Ветер
(°,м/с) 
Видим.   Явления Облачность Т
(°С)
Тd
(°С)
f(%) Тe
(°С)
Pmin
(гПа)
dP
(гПа)
Po
(мм)
O2
(г/м3)
Тmin Tmax R s Состояние
почвы
00 18.09.17 240 (ЮЗ) 10 км    9/0 средняя 
[Ac trans]
+10.9 +7 77 +11  1019.8  0.4  755  292           
03 18.09.17 250 (З) 10 км    9/0 верхняя 
[Ci fib]
+11 +7.3 78 +11  1020.8  756  292  +8.6        сухая 
06 18.09.17 290 (З) 10 км    8/3 1000 м верхняя 
[Cu hum|Ci fib]
+15.9 +7.5 57 +17  1021.6  0.9  757  287           
09 18.09.17 300 (СЗ) 10 км    8/8 1000 м 
[Cu med, cong]
+18.3 +7 48 +19  1021.2  -0.3  757  285           
12 18.09.17 320 (СЗ) 10 км    9/8 1000 м средняя, верхняя 
[Sc|Ac trans|Ci fib]
+17.8 +7 49 +19  1021.2  0.1  757  285           
15 18.09.17 010 (С) 10 км    10/10 1000 м 
[Sc]
+14.5 +8.9 69 +16  1021.1  -0.2  756  288    +19.1       
18 18.09.17 тихо ()   10 км    9/9 1000 м 
[Sc]
+12.3 +9.6 84 +13  1021.2  -0.2  756  290           
21 18.09.17 230 (ЮЗ) 10 км    4/0 верхняя 
[Ci fib]
+9.6 +7.5 87 +11  1020.6  -0.8  756  293           
00 19.09.17 170 (Ю) 10 км    9/0 средняя 
[Ac trans]
+11.5 +8.2 80 +13  1019.8  -0.6  755  291           
03 19.09.17 180 (Ю) 10 км    3/0 верхняя 
[Ci fib]
+11.4 +7.2 75 +11  1018.8  -1  755  291  +9.4        сухая 
06 19.09.17 190 (Ю) 10 км    1/0 средняя 
[Ac trans]
+19.1 +7.7 48 +20  1017.8  -0.7  754  283           
09 19.09.17 190 (Ю) 10 км    8/1 1000 м средняя, верхняя 
[Sc|Ac trans|Ci fib]
+24.2 +8.8 37 +24  1016.8  -0.8  754  277           
12 19.09.17 190 (Ю) 10 км    3/0 верхняя 
[Ci fib]
+27.9 +8.6 30 +28  1015.3  -1.4  752  274           
15 19.09.17 240 (ЮЗ) 10 км    8/0 средняя, верхняя 
[Ac trans|Ci fib]
+20.1 +10.3 53 +22  1015.8  0.2  753  281    +27.9       
18 19.09.17 160 (Ю) 10 км    9/0 средняя, верхняя 
[Ac trans|Ci fib]
+15.4 +10.2 71 +17  1015.8  -0.2  753  285           
21 19.09.17 200 (Ю) 10 км    9/3 1000 м средняя, верхняя 
[Sc|Ac trans|Ci fib]
+18.4 +9.1 55 +20  1015  -0.6  752  282           
00 20.09.17 200 (Ю) 10 км    9/0 средняя, верхняя 
[Ac trans|Ci fib]
+15.6 +9.2 66 +17  1016  0.9  753  285           
03 20.09.17 220 (ЮЗ) 10 км    8/4 1000 м средняя, верхняя 
[Sc|Ac trans|Ci fib]
+14.2 +9.7 74 +16  1017.2  1.1  754  287  +11        сухая 
06 20.09.17 310 (СЗ) 10 км    9/6 1000 м средняя 
[Sc|Ac trans]
+17.1 +9 59 +19  1018.8  1.8  755  285           
09 20.09.17 250 (З) 10 км    9/1 1000 м средняя, верхняя 
[Sc|Ac trans|Ci fib]
+19.7 +8.9 50 +21  1018.6  -0.2  755  282           
12 20.09.17 290 (З) 10 км    4/0 средняя, верхняя 
[Ac trans|Ci fib]
+20.9 +7.2 41 +21  1018.7  0.2  755  281           
15 20.09.17 280 (З) 10 км    ясно 
+12 +7.9 76 +13  1020.2  756  290    +21.2       
18 20.09.17 320 (СЗ) 10 км    ясно 
+8.7 +6.2 84 +10  1021.6  1.2  757  294           
21 20.09.17 100 (В) 10 км    1/0 верхняя 
[Ci fib]
+8.3 +5.9 85 +9  1022  0.4  757  295           
00 21.09.17 190 (Ю) 10 км    1/0 средняя 
[Ac trans]
+6.6 +4.8 88 +8  1022.7  0.6  757  297           
Время (UTC), дата Ветер
(°,м/с) 
Видим.   Явления Облачность Т
(°С)
Тd
(°С)
f(%) Тe
(°С)
Pmin
(гПа)
dP
(гПа)
Po
(мм)
O2
(г/м3)
Тmin Tmax R s Состояние
почвы

Для получения пояснительной информации подведите курсор к названию столбца.

ПОГОДА в Уфе - архив

Всё, что Вы хотите узнать о погоде в Уфе - удобно и подробно!

Выберите нужную дату (начиная с 1 января 2015* года) и нажмите кнопку "Найти".
Будут отображены архивные сводки погоды по пункту Уфа, начиная с указанной даты.


Отображать данные в формате CSV (для использования в таблицах Excel)


Внимание! Наш архив погоды предназначен исключительно для личного некоммерческого использования в познавательных целях. Если Вам необходимы официальные справки о состоянии погоды (для производственных, юридических, коммерческих и т.п. целей), обращайтесь в органы Росгидромета.

*Примечание: данная дата относится к архиву по метеостанциям СССР (Россия, СНГ, Балтия).
Архив по метеостанциям Зарубежной Европы и Азии (кроме Китая) хранится 10 дней, по другим регионам земного шара (Китай, Африка, Америка, Австралия, Океания) - 1 день.

Уфа - район местоположения метеостанции


Название, широта, долгота, высота метеостанции:
Уфа (город) 54.7°ш. 55.8°д. 104 м над ур. моря [Российская Федерация]

Дополнительная информация

В oтличие oт бoльшинства пoгoдных сайтoв мы публикуем пoдрoбную метеoинфoрмацию в детальнoм прoфессиoнальнoм фoрмате.

Характеристики температуры и влажнoсти вoздуха измеряются на высoте 2 м в тени вдали oт зданий и деревьев.
Скoрoсть ветра измеряется на высoте 10 м (на урoвне рoста челoвека скoрoсть ветра ниже в 1.5-2 раза). Если метеoстанция нахoдится в гoрoде или в лесу, тo скoрoсть ветра занижена на 2-4 м/с пo сравнению с oткрытым местoм. Скoрoсть ветра над акватoриями крупных рек и oзёр, а также на вершинах хoлмoв на 2-5 м/с выше, чем в oбычных услoвиях.
Атмoсфернoе давление в разных тoчках местнoсти мoжет значительнo oтличаться oт давления на метеoстанции, в зависимoсти oт услoвий рельефа (при пoдъёме на 10 м давление пoнижается примернo на 1 мм рт.ст.).